Weather History for Lafayette, IN

Change the Weather History Date:

Saturday, October 16, 2010

  Actual Average Record
Temperature  
Mean Temperature 53 °F 54 °F  
Max Temperature 71 °F 65 °F 83 °F (1968)
Min Temperature 35 °F 43 °F 31 °F (1986)
Degree Days  
Heating Degree Days 12 11  
Month to date heating degree days 114 145  
Since 1 July heating degree days 160 230  
Cooling Degree Days 0 0  
Month to date cooling degree days 9 13  
Year to date cooling degree days 1334 978  
Growing Degree Days 3 (Base 50)    
Moisture  
Dew Point 37 °F    
Average Humidity 64    
Maximum Humidity 100    
Minimum Humidity 27    
Precipitation  
Precipitation 0.00 in 0.08 in 1.69 in (1957)
Month to date precipitation 0.52 1.51  
Year to date precipitation 30.81 29.72  
Sea Level Pressure  
Sea Level Pressure 30.13 in    
Wind  
Wind Speed 5 mph (SW)    
Max Wind Speed 15 mph    
Max Gust Speed 21 mph    
Visibility 6 miles    
Events Fog    
T = Trace of Precipitation, MM = Missing Value Source: NWS Daily Summary

Daily Weather History Graph

Daily Weather History Graph

Search for Another Location

Airport:

Trip Planner

Search our weather history database for the weather conditions in past years. The results will help you decide how hot, cold, wet, or windy it might be!

Date:

Astronomy

Oct. 16, 2010 Rise Set
Actual Time 7:59 AM EDT 7:06 PM EDT
Civil Twilight 7:32 AM EDT 7:33 PM EDT
Nautical Twilight 7:00 AM EDT 8:05 PM EDT
Astronomical Twilight 6:28 AM EDT 8:36 PM EDT
Moon 3:59 PM EDT (10/16) 1:51 AM EDT (10/16)
Length of Visible Light 12h 01m
Length of Day
11h 06m
Waxing Gibbous, 67% of the Moon is Illuminated
Oct 16
Waxing Gibbous
Oct 22
Full
Oct 30
Last Quarter
Nov 6
New
Nov 13
First Quarter

Hourly Weather History & Observations

Time (EDT) Temp. Dew Point Humidity Pressure Visibility Wind Dir Wind Speed Gust Speed Precip Events Conditions
12:54 AM 41.0 °F 39.0 °F 93% 30.15 in 10.0 mi Calm Calm - N/A   Clear
1:54 AM 39.9 °F 37.9 °F 93% 30.14 in 10.0 mi Calm Calm - N/A   Clear
2:54 AM 39.0 °F 37.0 °F 93% 30.15 in 7.0 mi Calm Calm - N/A   Clear
3:54 AM 39.0 °F 37.0 °F 93% 30.14 in 9.0 mi Calm Calm - N/A   Clear
4:54 AM 37.9 °F 36.0 °F 93% 30.15 in 2.0 mi Calm Calm - N/A   Clear
5:06 AM 37.4 °F 35.6 °F 93% 30.14 in 10.0 mi Calm Calm - N/A   Clear
5:54 AM 37.0 °F 35.1 °F 93% 30.16 in 8.0 mi Calm Calm - N/A   Clear
6:48 AM 35.6 °F 35.6 °F 100% 30.17 in 1.8 mi Calm Calm - N/A   Clear
6:52 AM 35.6 °F 35.6 °F 100% 30.17 in 0.8 mi Calm Calm - N/A   Mist
6:54 AM 36.0 °F 35.1 °F 97% 30.18 in 0.5 mi Calm Calm - N/A Fog Fog
7:01 AM 35.6 °F 35.6 °F 100% 30.17 in 3.0 mi Calm Calm - N/A   Mostly Cloudy
7:08 AM 35.6 °F 33.8 °F 93% 30.17 in 3.0 mi Calm Calm - N/A   Scattered Clouds
7:24 AM 35.6 °F 33.8 °F 93% 30.18 in 1.2 mi Calm Calm - N/A   Mostly Cloudy
7:33 AM 35.6 °F 35.6 °F 100% 30.18 in 0.2 mi Calm Calm - N/A Fog Fog
7:52 AM 35.6 °F 33.8 °F 93% 30.18 in 0.8 mi Calm Calm - N/A   Mostly Cloudy
7:54 AM 35.1 °F 34.0 °F 96% 30.19 in 0.8 mi Calm Calm - N/A   Mostly Cloudy
7:57 AM 35.6 °F 33.8 °F 93% 30.18 in 1.2 mi Calm Calm - N/A   Scattered Clouds
8:02 AM 35.6 °F 33.8 °F 93% 30.18 in 0.8 mi Calm Calm - N/A   Mist
8:10 AM 35.6 °F 33.8 °F 93% 30.18 in 1.5 mi Calm Calm - N/A   Scattered Clouds
8:54 AM 37.0 °F 37.0 °F 100% 30.19 in 5.0 mi Calm Calm - N/A   Clear
9:54 AM 45.0 °F 43.0 °F 93% 30.20 in 9.0 mi Calm Calm - N/A   Clear
10:54 AM 55.0 °F 46.0 °F 72% 30.19 in 10.0 mi SSW 4.6 mph - N/A   Clear
11:54 AM 63.0 °F 39.9 °F 43% 30.18 in 10.0 mi SW 9.2 mph - N/A   Clear
12:54 PM 64.9 °F 39.9 °F 40% 30.17 in 10.0 mi SW 10.4 mph 18.4 mph N/A   Clear
1:54 PM 66.9 °F 39.0 °F 36% 30.12 in 10.0 mi SSW 10.4 mph 17.3 mph N/A   Clear
2:54 PM 69.1 °F 37.9 °F 32% 30.10 in 10.0 mi West 11.5 mph 16.1 mph N/A   Clear
3:54 PM 70.0 °F 37.0 °F 30% 30.07 in 10.0 mi WSW 11.5 mph 17.3 mph N/A   Clear
4:54 PM 71.1 °F 35.1 °F 27% 30.05 in 10.0 mi WSW 11.5 mph - N/A   Clear
5:54 PM 71.1 °F 35.1 °F 27% 30.04 in 10.0 mi SW 8.1 mph - N/A   Clear
6:54 PM 66.9 °F 36.0 °F 32% 30.04 in 10.0 mi SW 5.8 mph - N/A   Clear
7:54 PM 64.9 °F 36.0 °F 34% 30.02 in 10.0 mi SW 6.9 mph - N/A   Clear
8:54 PM 64.0 °F 36.0 °F 35% 30.03 in 10.0 mi SW 6.9 mph - N/A   Clear
9:54 PM 61.0 °F 36.0 °F 39% 30.04 in 10.0 mi Calm Calm - N/A   Clear
10:54 PM 57.9 °F 37.0 °F 46% 30.05 in 10.0 mi WSW 3.5 mph - N/A   Clear
11:54 PM 57.0 °F 37.0 °F 47% 30.04 in 10.0 mi WSW 4.6 mph - N/A   Clear